Terminal Aerodrome Forecast
Issued by NWS Brownsville, TX

Home | Current Version | Previous Version | Text Only | Print | Product List | Glossary On
Versions: 1 2 3 4 5 6 7 8 9 10 11 12 13 14 15 16 17 18 19 20
000
FTUS44 KBRO 232300 RRA
TAFBRO
TAF
KBRO 232348Z 2400/2424 14017KT P6SM SCT250
     FM240400 15015KT P6SM OVC015
     FM241700 17018G25KT P6SM SCT035=

USA.gov is the U.S. government's official web portal to all federal, state and local government web resources and services.